period_start,C,m1,H,J0,J1,J2,J3,J4,J5,JA,JB,JC,JD,JJ,JK,JN,#
2018-09-26 00:02:03,0.00,0.00,0.00,27.43,30.80,32.20,0.00,0.25,1024.45,2011.97,3655.00,3045.98,3505.99,0.00,0.00,0.00,0000 0000 0000 A000 020008
2018-09-26 00:07:04,0.00,0.00,0.00,27.45,30.80,32.18,0.00,0.22,1024.51,2011.98,3655.00,3045.98,3505.99,0.00,0.00,0.00,0000 0000 0000 A000 020008
2018-09-26 00:12:06,0.00,0.00,0.00,27.45,30.80,32.14,0.00,0.25,1024.65,2011.98,3655.00,3045.99,3505.99,0.00,0.00,0.00,0000 0000 0000 A000 020008
2018-09-26 00:17:07,0.00,0.00,0.00,27.44,30.79,32.15,0.00,0.23,1024.72,2011.97,3655.00,3045.98,3505.99,0.00,0.00,0.00,0000 0000 0000 A000 020008
2018-09-26 00:22:08,0.00,0.00,0.00,27.45,30.78,32.17,0.00,0.23,1024.71,2011.97,3655.01,3045.99,3506.00,0.00,0.00,0.00,0000 0000 0000 A000 020008
2018-09-26 00:27:09,0.00,0.00,0.00,27.45,30.77,32.15,0.00,0.22,1024.80,2011.98,3655.01,3045.99,3506.00,0.00,0.00,0.00,0000 0000 0000 A000 020008
2018-09-26 00:32:10,0.00,0.00,0.00,27.45,30.77,32.21,0.00,0.23,1024.76,2011.97,3655.00,3045.99,3506.00,0.00,0.00,0.00,0000 0000 0000 A000 020008
2018-09-26 00:37:12,0.00,0.00,0.00,27.45,30.77,32.21,0.00,0.23,1024.77,2011.98,3655.01,3045.99,3506.00,0.00,0.00,0.00,0000 0000 0000 A000 020008
2018-09-26 00:42:13,0.00,0.00,0.00,27.45,30.77,32.18,0.00,0.25,1024.76,2011.98,3655.03,3045.99,3506.01,0.00,0.00,0.00,0000 0000 0000 A000 020008
2018-09-26 00:47:14,0.00,0.00,0.00,27.45,30.77,32.17,0.00,0.24,1024.85,2011.99,3655.05,3045.99,3506.02,0.00,0.00,0.00,0000 0000 0000 A000 020008
2018-09-26 00:52:15,0.00,0.00,0.00,27.46,30.77,32.20,0.00,0.18,1024.80,2011.99,3655.14,3046.00,3506.04,0.00,0.00,0.00,0000 0000 0000 A000 020008
2018-09-26 00:57:16,0.00,0.00,0.00,27.45,30.76,32.16,0.00,0.21,1024.79,2011.99,3655.14,3046.00,3506.05,0.00,0.00,0.00,0000 0000 0000 A000 020008
2018-09-26 01:02:18,0.00,0.00,0.00,27.45,30.76,32.17,0.00,0.21,1024.83,2011.99,3655.28,3046.00,3506.09,0.00,0.00,0.00,0000 0000 0000 A000 020008
2018-09-26 01:07:19,0.00,0.00,0.00,27.45,30.75,32.18,0.00,0.24,1024.87,2011.99,3655.26,3046.00,3506.07,0.00,0.00,0.00,0000 0000 0000 A000 020008
2018-09-26 01:12:20,0.00,0.00,0.00,27.45,30.75,32.20,0.00,0.17,1024.74,2011.99,3655.27,3046.00,3506.10,0.00,0.00,0.00,0000 0000 0000 A000 020008
2018-09-26 01:17:21,0.00,0.00,0.00,27.45,30.75,32.16,0.00,0.15,1024.84,2011.99,3655.27,3046.01,3506.09,0.00,0.00,0.00,0000 0000 0000 A000 020008
2018-09-26 01:22:23,0.00,0.00,0.00,27.45,30.75,32.20,0.00,0.18,1024.79,2011.99,3655.21,3046.01,3506.10,0.00,0.00,0.00,0000 0000 0000 A000 020008
2018-09-26 01:27:24,0.00,0.00,0.00,27.42,30.75,32.13,0.00,0.14,1024.74,2011.99,3655.43,3046.02,3506.18,0.00,0.00,0.00,0000 0000 0000 A000 020008
2018-09-26 01:32:25,0.00,0.00,0.00,27.40,30.75,32.19,0.00,0.16,1024.69,2011.99,3655.36,3046.01,3506.17,0.00,0.00,0.00,0000 0000 0000 A000 020008
2018-09-26 01:37:26,0.00,0.00,0.00,27.39,30.75,32.15,0.00,0.17,1024.49,2011.99,3655.68,3046.04,3506.53,0.00,0.00,0.00,0000 0000 0000 A000 020008
2018-09-26 01:42:28,0.00,0.00,0.00,27.34,30.75,32.21,0.00,0.17,1024.47,2011.99,3655.84,3046.04,3506.61,0.00,0.00,0.00,0000 0000 0000 A000 020008
2018-09-26 01:47:29,0.00,0.00,0.00,27.33,30.75,32.22,0.00,0.22,1024.54,2011.99,3655.87,3046.07,3506.71,0.00,0.00,0.00,0000 0000 0000 A000 020008
2018-09-26 01:52:30,0.00,0.00,0.00,27.33,30.75,32.24,0.00,0.17,1024.63,2011.99,3655.83,3046.03,3506.64,0.00,0.00,0.00,0000 0000 0000 A000 020008
2018-09-26 01:57:31,0.00,0.00,0.00,27.36,30.75,32.25,0.00,0.23,1024.53,2011.99,3655.95,3046.14,3506.87,0.00,0.00,0.00,0000 0000 0000 A000 020008
2018-09-26 02:02:32,0.00,0.00,0.00,27.38,30.75,32.23,0.00,0.12,1024.51,2011.99,3655.93,3046.05,3506.85,0.00,0.00,0.00,0000 0000 0000 A000 020008
2018-09-26 02:07:33,0.00,0.00,0.00,27.40,30.75,32.21,0.00,0.17,1024.56,2011.99,3655.88,3046.05,3506.67,0.00,0.00,0.00,0000 0000 0000 A000 020008
2018-09-26 02:12:35,0.00,0.00,0.00,27.40,30.75,32.23,0.00,0.23,1024.51,2011.99,3655.83,3046.08,3506.66,0.00,0.00,0.00,0000 0000 0000 A000 020008
2018-09-26 02:17:36,0.00,0.00,0.00,27.43,30.75,32.20,0.00,0.23,1024.51,2011.99,3655.92,3046.11,3506.77,0.00,0.00,0.00,0000 0000 0000 A000 020008
2018-09-26 02:22:37,0.00,0.00,0.00,27.46,30.75,32.19,0.00,0.15,1024.80,2011.99,3655.92,3046.10,3506.79,0.00,0.00,0.00,0000 0000 0000 A000 020008
2018-09-26 02:27:38,0.00,0.00,0.00,27.46,30.75,32.21,0.00,0.13,1024.88,2011.99,3655.83,3046.04,3506.64,0.00,0.00,0.00,0000 0000 0000 A000 020008
2018-09-26 02:32:39,0.00,0.00,0.00,27.47,30.75,32.23,0.00,0.14,1024.86,2011.99,3655.75,3046.04,3506.49,0.00,0.00,0.00,0000 0000 0000 A000 020008
2018-09-26 02:37:41,0.00,0.00,0.00,27.50,30.75,32.23,0.00,0.17,1024.82,2011.99,3655.79,3046.03,3506.51,0.00,0.00,0.00,0000 0000 0000 A000 020008
2018-09-26 02:42:42,0.00,0.00,0.00,27.51,30.75,32.22,0.00,0.23,1024.88,2011.99,3655.44,3046.01,3506.22,0.00,0.00,0.00,0000 0000 0000 A000 020008
2018-09-26 02:47:43,0.00,0.00,0.00,27.52,30.75,32.24,0.00,0.20,1024.91,2011.99,3655.65,3046.03,3506.38,0.00,0.00,0.00,0000 0000 0000 A000 020008
2018-09-26 02:52:44,0.00,0.00,0.00,27.52,30.75,32.26,0.00,0.20,1024.87,2011.99,3655.70,3046.04,3506.45,0.00,0.00,0.00,0000 0000 0000 A000 020008
2018-09-26 02:57:45,0.00,0.00,0.00,27.54,30.75,32.27,0.00,0.21,1024.86,2011.99,3655.33,3046.01,3506.18,0.00,0.00,0.00,0000 0000 0000 A000 020008
2018-09-26 03:02:46,0.00,0.00,0.00,27.55,30.75,32.28,0.00,0.23,1024.90,2011.99,3655.13,3046.00,3506.02,0.00,0.00,0.00,0000 0000 0000 A000 020008
2018-09-26 03:07:47,0.00,0.00,0.00,27.57,30.76,32.30,0.00,0.24,1024.92,2011.99,3655.13,3046.00,3506.02,0.00,0.00,0.00,0000 0000 0000 A000 020008
2018-09-26 03:12:49,0.00,0.00,0.00,27.58,30.77,32.30,0.00,0.16,1024.92,2011.99,3655.09,3046.00,3506.02,0.00,0.00,0.00,0000 0000 0000 A000 020008
2018-09-26 03:17:50,0.00,0.00,0.00,27.60,30.77,32.31,0.00,0.22,1024.92,2011.99,3655.04,3046.00,3506.00,0.00,0.00,0.00,0000 0000 0000 A000 020008
2018-09-26 03:22:51,0.00,0.00,0.00,27.60,30.77,32.31,0.00,0.17,1024.92,2011.99,3655.04,3046.00,3506.01,0.00,0.00,0.00,0000 0000 0000 A000 020008
2018-09-26 03:27:52,0.00,0.00,0.00,27.60,30.77,32.33,0.00,0.14,1024.92,2011.98,3655.01,3046.00,3506.01,0.00,0.00,0.00,0000 0000 0000 A000 020008
2018-09-26 03:32:53,0.00,0.00,0.00,27.60,30.79,32.36,0.00,0.22,1024.92,2011.99,3655.01,3046.00,3506.00,0.00,0.00,0.00,0000 0000 0000 A000 020008
2018-09-26 03:37:54,0.00,0.00,0.00,27.61,30.80,32.38,0.00,0.24,1024.92,2011.98,3655.01,3046.00,3506.00,0.00,0.00,0.00,0000 0000 0000 A000 020008
2018-09-26 03:42:56,0.00,0.00,0.00,27.62,30.80,32.36,0.00,0.22,1024.92,2011.99,3655.01,3046.00,3506.00,0.00,0.00,0.00,0000 0000 0000 A000 020008
2018-09-26 03:47:57,0.00,0.00,0.00,27.62,30.80,32.36,0.00,0.19,1024.92,2011.97,3655.00,3046.00,3506.00,0.00,0.00,0.00,0000 0000 0000 A000 020008
2018-09-26 03:52:58,0.00,0.00,0.00,27.62,30.80,32.39,0.00,0.18,1024.92,2011.96,3655.00,3046.00,3506.00,0.00,0.00,0.00,0000 0000 0000 A000 020008
2018-09-26 03:57:59,0.00,0.00,0.00,27.64,30.82,32.38,0.00,0.12,1024.92,2011.98,3655.00,3045.99,3506.00,0.00,0.00,0.00,0000 0000 0000 A000 020008
2018-09-26 04:03:00,0.00,0.00,0.00,27.65,30.82,32.40,0.00,0.09,1024.92,2011.98,3655.00,3045.99,3506.00,0.00,0.00,0.00,0000 0000 0000 A000 020008
2018-09-26 04:08:01,0.00,0.00,0.00,27.66,30.82,32.43,0.00,0.15,1024.92,2011.97,3655.00,3045.98,3505.99,0.00,0.00,0.00,0000 0000 0000 A000 020008
2018-09-26 04:13:02,0.00,0.00,0.00,27.67,30.83,32.43,0.00,0.15,1024.92,2011.87,3654.97,3045.88,3505.96,0.00,0.00,0.00,0000 0000 0000 A000 020008
2018-09-26 04:18:03,0.00,0.00,0.00,27.68,30.85,32.42,0.00,0.12,1024.92,2011.79,3654.98,3045.86,3505.94,0.00,0.00,0.00,0000 0000 0000 A000 020008
2018-09-26 04:23:05,0.00,0.00,0.00,27.70,30.85,32.43,0.00,0.18,1024.92,2011.64,3654.96,3045.68,3505.85,0.00,0.00,0.00,0000 0000 0000 A000 020008
2018-09-26 04:28:06,0.00,0.00,0.00,27.72,30.85,32.41,0.00,0.21,1024.91,2011.55,3654.92,3045.53,3505.67,0.00,0.00,0.00,0000 0000 0000 A000 020008
2018-09-26 04:33:08,0.00,0.00,0.00,27.72,30.85,32.46,0.00,0.17,1024.91,2011.59,3654.96,3045.53,3505.68,0.00,0.00,0.00,0000 0000 0000 A000 020008
2018-09-26 04:38:09,0.00,0.00,0.00,27.75,30.87,32.44,0.00,0.23,1024.91,2011.61,3654.96,3045.54,3505.74,0.00,0.00,0.00,0000 0000 0000 A000 020008
2018-09-26 04:43:10,0.00,0.00,0.00,27.75,30.87,32.47,0.00,0.16,1024.91,2011.68,3654.96,3045.65,3505.82,0.00,0.00,0.00,0000 0000 0000 A000 020008
2018-09-26 04:48:11,0.00,0.00,0.00,27.75,30.87,32.48,0.00,0.09,1024.88,2011.40,3654.94,3045.38,3505.55,0.00,0.00,0.00,0000 0000 0000 A000 020008
2018-09-26 04:53:12,0.00,0.00,0.00,27.76,30.90,32.53,0.00,0.15,1024.86,2011.26,3654.74,3045.18,3505.23,0.00,0.00,0.00,0000 0000 0000 A000 020008
2018-09-26 04:58:13,0.00,0.00,0.00,27.77,30.90,32.55,0.00,0.19,1024.89,2011.09,3654.29,3045.04,3505.05,0.00,0.00,0.00,0000 0000 0000 A000 020008
2018-09-26 05:03:14,0.00,0.00,0.00,27.77,30.90,32.58,0.00,0.20,1024.92,2011.06,3654.23,3045.02,3505.02,0.00,0.00,0.00,0000 0000 0000 A000 020008
2018-09-26 05:08:16,0.00,0.00,0.00,27.78,30.92,32.56,0.00,0.23,1024.92,2011.05,3654.04,3045.01,3505.00,0.00,0.00,0.00,0000 0000 0000 A000 020008
2018-09-26 05:13:17,0.00,0.00,0.00,27.80,30.92,32.59,0.00,0.10,1024.92,2011.05,3654.05,3045.00,3505.01,0.00,0.00,0.00,0000 0000 0000 A000 020008
2018-09-26 05:18:18,0.00,0.00,0.00,27.80,30.93,32.59,0.00,0.15,1024.92,2011.05,3654.03,3045.00,3505.00,0.00,0.00,0.00,0000 0000 0000 A000 020008
2018-09-26 05:23:19,0.00,0.00,0.00,27.80,30.95,32.58,0.00,0.13,1024.92,2011.01,3654.01,3045.00,3505.00,0.00,0.00,0.00,0000 0000 0000 A000 020008
2018-09-26 05:28:21,0.00,0.00,0.00,27.80,30.95,32.57,0.00,0.06,1024.92,2011.00,3654.00,3045.00,3505.00,0.00,0.00,0.00,0000 0000 0000 A000 020008
2018-09-26 05:33:22,0.00,0.00,0.00,27.80,30.96,32.57,0.00,0.07,1024.93,2011.00,3654.00,3045.00,3504.99,0.00,0.00,0.00,0000 0000 0000 A000 020008
2018-09-26 05:38:23,0.00,0.00,0.00,27.81,30.97,32.57,0.00,0.12,1024.92,2011.00,3654.00,3044.99,3504.99,0.00,0.00,0.00,0000 0000 0000 A000 020008
2018-09-26 05:43:25,0.00,0.00,0.00,27.82,30.97,32.59,0.00,0.08,1024.92,2011.00,3654.00,3044.99,3504.98,0.00,0.00,0.00,0000 0000 0000 A000 020008
2018-09-26 05:48:26,0.00,0.00,0.00,27.82,30.98,32.58,0.00,0.08,1024.93,2011.00,3654.00,3044.98,3504.98,0.00,0.00,0.00,0000 0000 0000 A000 020008
2018-09-26 05:53:27,0.00,0.00,0.00,27.84,31.00,32.58,0.00,0.16,1024.93,2011.00,3653.99,3044.96,3504.90,0.00,0.00,0.00,0000 0000 0000 A000 020008
2018-09-26 05:58:28,0.00,0.00,0.00,27.83,31.00,32.60,0.00,0.09,1024.93,2011.00,3653.98,3044.94,3504.72,0.00,0.00,0.00,0000 0000 0000 A000 020008
2018-09-26 06:03:29,0.00,0.00,0.00,27.85,31.00,32.61,0.00,0.12,1024.95,2011.00,3653.98,3044.94,3504.77,0.00,0.00,0.00,0000 0000 0000 A000 020008
2018-09-26 06:08:31,0.00,0.00,0.00,27.85,31.01,32.55,0.00,0.13,1024.93,2011.00,3653.96,3044.81,3504.45,0.00,0.00,0.00,0000 0000 0000 A000 020008
2018-09-26 06:13:32,0.00,0.00,0.00,27.85,31.02,32.60,0.00,0.08,1024.93,2011.00,3653.87,3044.51,3504.18,0.00,0.00,0.00,0000 0000 0000 A000 020008
2018-09-26 06:18:33,0.00,0.00,0.00,27.84,31.02,32.60,0.00,0.03,1024.93,2010.99,3653.61,3044.25,3504.05,0.00,0.00,0.00,0000 0000 0000 A000 020008
2018-09-26 06:23:34,0.00,0.00,0.00,27.83,31.02,32.61,0.00,0.03,1024.94,2010.99,3653.63,3044.24,3504.05,0.00,0.00,0.00,0000 0000 0000 A000 020008
2018-09-26 06:28:36,0.00,0.00,0.00,27.85,31.04,32.63,0.00,0.07,1024.93,2010.99,3653.72,3044.30,3504.04,0.00,0.00,0.00,0000 0000 0000 A000 020008
2018-09-26 06:33:37,0.00,0.00,0.00,27.85,31.05,32.60,0.00,0.13,1024.94,2010.98,3653.41,3044.08,3504.02,0.00,0.00,0.00,0000 0000 0000 A000 020008
2018-09-26 06:38:38,0.00,0.00,0.00,27.85,31.05,32.63,0.00,0.05,1024.93,2010.97,3653.21,3044.06,3504.00,0.00,0.00,0.00,0000 0000 0000 A000 020008
2018-09-26 06:43:39,0.00,0.00,0.00,27.84,31.05,32.63,0.00,0.03,1025.00,2010.97,3653.16,3044.06,3504.00,0.00,0.00,0.00,0000 0000 0000 A000 020008
2018-09-26 06:48:40,0.00,0.00,0.00,27.82,31.05,32.63,0.00,0.03,1025.18,2010.96,3653.15,3044.04,3504.00,0.00,0.00,0.00,0000 0000 0000 A000 020008
2018-09-26 06:53:41,0.00,0.00,0.00,27.84,31.07,32.62,0.00,0.01,1025.29,2010.95,3653.03,3044.01,3504.00,0.00,0.00,0.00,0000 0000 0000 A000 020008
2018-09-26 06:58:42,0.00,0.00,0.00,27.84,31.07,32.59,0.00,0.02,1025.25,2010.92,3653.02,3044.01,3504.00,0.00,0.00,0.00,0000 0000 0000 A000 020008
2018-09-26 07:03:44,0.00,0.00,0.00,27.84,31.07,32.65,0.00,0.04,1025.11,2010.92,3653.02,3044.01,3504.00,0.00,0.00,0.00,0000 0000 0000 A000 020008
2018-09-26 07:08:45,0.00,0.00,0.00,27.85,31.07,32.64,0.00,0.07,1024.99,2010.79,3653.00,3044.00,3503.99,0.00,0.00,0.00,0000 0000 0000 A000 020008
2018-09-26 07:13:46,0.00,0.00,0.00,27.85,31.07,32.63,0.00,0.00,1025.12,2010.65,3653.00,3044.00,3503.99,0.00,0.00,0.00,0000 0000 0000 A000 020008
2018-09-26 07:18:48,0.00,0.00,0.00,27.86,31.09,32.64,0.00,0.06,1025.20,2010.59,3653.00,3044.00,3503.98,0.00,0.00,0.00,0000 0000 0000 A000 020008
2018-09-26 07:23:49,0.00,0.00,0.00,27.87,31.10,32.62,0.00,0.12,1025.11,2010.34,3653.00,3044.00,3503.97,0.00,0.00,0.00,0000 0000 0000 A000 020008
2018-09-26 07:28:50,0.00,0.00,0.00,27.87,31.10,32.63,0.00,0.11,1025.10,2010.31,3652.99,3044.00,3503.97,0.00,0.00,0.00,0000 0000 0000 A000 020008
2018-09-26 07:33:51,0.00,0.00,0.00,27.85,31.10,32.68,0.00,0.04,1025.19,2010.25,3652.98,3043.99,3503.82,0.00,0.00,0.00,0000 0000 0000 A000 020008
2018-09-26 07:38:52,0.00,0.00,0.00,27.85,31.10,32.67,0.00,0.07,1025.35,2010.26,3652.99,3043.98,3503.77,0.00,0.00,0.00,0000 0000 0000 A000 020008
2018-09-26 07:43:54,0.00,0.00,0.00,27.84,31.10,32.64,0.00,0.05,1025.39,2010.30,3652.99,3043.99,3503.86,0.00,0.00,0.00,0000 0000 0000 A000 020008
2018-09-26 07:48:55,0.00,0.00,0.00,27.83,31.10,32.61,0.00,0.06,1025.40,2010.24,3652.98,3043.98,3503.76,0.00,0.00,0.00,0000 0000 0000 A000 020008
2018-09-26 07:53:56,0.00,0.00,0.00,27.83,31.11,32.64,0.00,0.02,1025.40,2010.17,3652.99,3043.99,3503.74,0.00,0.00,0.00,0000 0000 0000 A000 020008
2018-09-26 07:58:57,0.00,0.00,0.00,27.83,31.12,32.60,0.00,0.03,1025.40,2010.27,3652.98,3043.99,3503.75,0.00,0.00,0.00,0000 0000 0000 A000 020008
2018-09-26 08:03:58,0.00,0.00,0.00,27.82,31.12,32.65,0.00,0.02,1025.40,2010.08,3652.97,3043.97,3503.34,0.00,0.00,0.00,0000 0000 0000 A000 020008
2018-09-26 08:08:59,0.00,0.00,0.00,27.83,31.12,32.62,0.00,0.00,1025.40,2010.13,3652.96,3043.97,3503.50,0.00,0.00,0.00,0000 0000 0000 A000 020008
2018-09-26 08:14:00,0.00,0.00,0.00,27.85,31.12,32.65,0.00,0.04,1025.40,2010.12,3652.97,3043.98,3503.36,0.00,0.00,0.00,0000 0000 0000 A000 020008
2018-09-26 08:19:01,0.00,0.00,0.00,27.85,31.12,32.63,0.00,0.01,1025.40,2010.08,3652.97,3043.95,3503.25,0.00,0.00,0.00,0000 0000 0000 A000 020008
2018-09-26 08:24:03,0.00,0.00,0.00,27.84,31.12,32.62,0.00,0.01,1025.41,2010.08,3652.96,3043.96,3503.35,0.00,0.00,0.00,0000 0000 0000 A000 020008
2018-09-26 08:29:04,0.00,0.00,0.00,27.82,31.12,32.59,0.00,0.00,1025.41,2010.06,3652.92,3043.95,3503.15,0.00,0.00,0.00,0000 0000 0000 A000 020008
2018-09-26 08:34:05,0.00,0.00,0.00,27.82,31.12,32.58,0.00,0.01,1025.41,2010.08,3652.92,3043.95,3503.21,0.00,0.00,0.00,0000 0000 0000 A000 020008
2018-09-26 08:39:06,0.00,0.00,0.00,27.82,31.12,32.61,0.00,0.00,1025.41,2010.04,3652.90,3043.94,3503.10,0.00,0.00,0.00,0000 0000 0000 A000 020008
2018-09-26 08:44:08,0.00,0.00,0.00,27.82,31.12,32.58,0.00,0.00,1025.41,2010.02,3652.81,3043.86,3503.09,0.00,0.00,0.00,0000 0000 0000 A000 020008
2018-09-26 08:49:09,0.00,0.00,0.00,27.82,31.12,32.56,0.00,0.01,1025.42,2010.02,3652.73,3043.83,3503.05,0.00,0.00,0.00,0000 0000 0000 A000 020008
2018-09-26 08:54:10,0.00,0.00,0.00,27.81,31.12,32.54,0.00,0.00,1025.43,2010.03,3652.68,3043.83,3503.03,0.00,0.00,0.00,0000 0000 0000 A000 020008
2018-09-26 08:59:11,0.00,0.00,0.00,27.81,31.12,32.55,0.00,0.01,1025.42,2010.02,3652.80,3043.89,3503.08,0.00,0.00,0.00,0000 0000 0000 A000 020008
2018-09-26 09:04:13,0.00,0.00,0.00,27.80,31.12,32.54,0.00,0.00,1025.41,2010.02,3652.59,3043.76,3503.04,0.00,0.00,0.00,0000 0000 0000 A000 020008
2018-09-26 09:09:14,0.00,0.00,0.00,27.80,31.12,32.55,0.00,0.00,1025.41,2010.03,3652.57,3043.77,3503.02,0.00,0.00,0.00,0000 0000 0000 A000 020008
2018-09-26 09:14:15,0.00,0.00,0.00,27.80,31.12,32.53,0.00,0.07,1025.41,2010.04,3652.57,3043.79,3503.03,0.00,0.00,0.00,0000 0000 0000 A000 020008
2018-09-26 09:19:17,0.00,0.00,0.00,27.80,31.12,32.58,0.00,0.07,1025.42,2010.05,3652.85,3043.93,3503.07,0.00,0.00,0.00,0000 0000 0000 A000 020008
2018-09-26 09:24:18,0.00,0.00,0.00,27.79,31.12,32.56,0.00,0.02,1025.42,2010.05,3652.75,3043.87,3503.04,0.00,0.00,0.00,0000 0000 0000 A000 020008
2018-09-26 09:29:19,0.00,0.00,0.00,27.78,31.12,32.51,0.00,0.01,1025.43,2010.03,3652.68,3043.83,3503.03,0.00,0.00,0.00,0000 0000 0000 A000 020008
2018-09-26 09:34:20,0.00,0.00,0.00,27.77,31.12,32.55,0.00,0.00,1025.44,2010.04,3652.88,3043.94,3503.10,0.00,0.00,0.00,0000 0000 0000 A000 020008
2018-09-26 09:39:21,0.00,0.00,0.00,27.77,31.12,32.56,0.00,0.00,1025.47,2010.05,3652.92,3043.93,3503.13,0.00,0.00,0.00,0000 0000 0000 A000 020008
2018-09-26 09:44:22,0.00,0.00,0.00,27.77,31.12,32.56,0.00,0.01,1025.44,2010.05,3652.94,3043.95,3503.14,0.00,0.00,0.00,0000 0000 0000 A000 020008
2018-09-26 09:49:24,0.00,0.00,0.00,27.76,31.11,32.56,0.00,0.01,1025.44,2010.06,3652.93,3043.97,3503.17,0.00,0.00,0.00,0000 0000 0000 A000 020008
2018-09-26 09:54:25,0.00,0.00,0.00,27.77,31.11,32.49,0.00,0.14,1025.44,2010.05,3652.89,3043.94,3503.12,0.00,0.00,0.00,0000 0000 0000 A000 020008
2018-09-26 09:59:26,0.00,0.00,0.00,27.76,31.10,32.50,0.00,0.07,1025.50,2010.04,3652.91,3043.94,3503.16,0.00,0.00,0.00,0000 0000 0000 A000 020008
2018-09-26 10:04:27,0.00,0.00,0.00,27.75,31.10,32.51,0.00,0.07,1025.61,2010.07,3652.95,3043.99,3503.34,0.00,0.00,0.00,0000 0000 0000 A000 020008
2018-09-26 10:09:29,0.00,0.00,0.00,27.76,31.10,32.49,0.00,0.07,1025.61,2010.11,3652.97,3043.98,3503.36,0.00,0.00,0.00,0000 0000 0000 A000 020008
2018-09-26 10:14:30,0.00,0.00,0.00,27.75,31.10,32.50,0.00,0.01,1025.65,2010.13,3652.97,3043.98,3503.40,0.00,0.00,0.00,0000 0000 0000 A000 020008
2018-09-26 10:19:31,0.00,0.00,0.00,27.75,31.10,32.52,0.00,0.03,1025.83,2010.17,3652.98,3043.99,3503.61,0.00,0.00,0.00,0000 0000 0000 A000 020008
2018-09-26 10:24:32,0.00,0.00,0.00,27.74,31.10,32.52,0.00,0.02,1025.84,2010.09,3652.95,3043.98,3503.40,0.00,0.00,0.00,0000 0000 0000 A000 020008
2018-09-26 10:29:34,0.00,0.00,0.00,27.72,31.10,32.50,0.00,0.02,1025.77,2010.11,3652.98,3043.98,3503.45,0.00,0.00,0.00,0000 0000 0000 A000 020008
2018-09-26 10:34:35,0.00,0.00,0.00,27.72,31.10,32.48,0.00,0.00,1025.80,2010.24,3652.99,3043.99,3503.70,0.00,0.00,0.00,0000 0000 0000 A000 020008
2018-09-26 10:39:36,0.00,0.00,0.00,27.72,31.10,32.54,0.00,0.02,1025.86,2010.28,3652.99,3043.99,3503.74,0.00,0.00,0.00,0000 0000 0000 A000 020008
2018-09-26 10:44:38,0.00,0.00,0.00,27.72,31.09,32.50,0.00,0.01,1025.87,2010.26,3652.99,3043.99,3503.75,0.00,0.00,0.00,0000 0000 0000 A000 020008
2018-09-26 10:49:39,0.00,0.00,0.00,27.71,31.08,32.49,0.00,0.04,1025.88,2010.30,3652.99,3043.99,3503.91,0.00,0.00,0.00,0000 0000 0000 A000 020008
2018-09-26 10:54:39,0.00,0.00,0.00,27.71,31.07,32.49,0.00,0.05,1025.89,2010.24,3652.99,3043.99,3503.83,0.00,0.00,0.00,0000 0000 0000 A000 020008
2018-09-26 10:59:40,0.00,0.00,0.00,27.71,31.07,32.46,0.00,0.17,1025.89,2010.22,3652.98,3043.99,3503.83,0.00,0.00,0.00,0000 0000 0000 A000 020008
2018-09-26 11:04:42,0.00,0.00,0.00,27.72,31.07,32.49,0.00,0.21,1025.89,2010.32,3652.99,3043.99,3503.91,0.00,0.00,0.00,0000 0000 0000 A000 020008
2018-09-26 11:09:43,0.00,0.00,0.00,27.70,31.07,32.49,0.00,0.05,1025.89,2010.36,3652.99,3043.99,3503.85,0.00,0.00,0.00,0000 0000 0000 A000 020008
2018-09-26 11:14:44,0.00,0.00,0.00,27.70,31.07,32.48,0.00,0.07,1025.89,2010.36,3652.99,3043.99,3503.96,0.00,0.00,0.00,0000 0000 0000 A000 020008
2018-09-26 11:19:45,0.00,0.00,0.00,27.70,31.07,32.44,0.00,0.07,1025.89,2010.54,3652.99,3043.99,3503.96,0.00,0.00,0.00,0000 0000 0000 A000 020008
2018-09-26 11:24:47,0.00,0.00,0.00,27.70,31.07,32.47,0.00,0.05,1025.89,2010.74,3652.99,3043.99,3503.99,0.00,0.00,0.00,0000 0000 0000 A000 020008
2018-09-26 11:29:48,0.00,0.00,0.00,27.70,31.06,32.46,0.00,0.08,1025.89,2010.80,3653.00,3044.00,3503.99,0.00,0.00,0.00,0000 0000 0000 A000 020008
2018-09-26 11:34:49,0.00,0.00,0.00,27.70,31.05,32.45,0.00,0.15,1025.89,2010.88,3653.00,3044.00,3503.99,0.00,0.00,0.00,0000 0000 0000 A000 020008
2018-09-26 11:39:51,0.00,0.00,0.00,27.70,31.05,32.43,0.00,0.22,1025.89,2010.90,3653.00,3044.01,3503.99,0.00,0.00,0.00,0000 0000 0000 A000 020008
2018-09-26 11:44:52,0.00,0.00,0.00,27.70,31.05,32.48,0.00,0.16,1025.89,2010.86,3653.00,3044.00,3503.99,0.00,0.00,0.00,0000 0000 0000 A000 020008
2018-09-26 11:49:53,0.00,0.00,0.00,27.69,31.05,32.47,0.00,0.10,1025.89,2010.78,3653.00,3044.00,3503.98,0.00,0.00,0.00,0000 0000 0000 A000 020008
2018-09-26 11:54:54,0.00,0.00,0.00,27.67,31.05,32.44,0.00,0.13,1025.89,2010.77,3653.00,3044.00,3503.99,0.00,0.00,0.00,0000 0000 0000 A000 020008
2018-09-26 11:59:55,0.00,0.00,0.00,27.66,31.05,32.49,0.00,0.10,1025.90,2010.85,3653.00,3044.01,3503.99,0.00,0.00,0.00,0000 0000 0000 A000 020008
2018-09-26 12:04:56,0.00,0.00,0.00,27.65,31.05,32.49,0.00,0.03,1025.90,2010.92,3653.01,3044.02,3503.99,0.00,0.00,0.00,0000 0000 0000 A000 020008
2018-09-26 12:09:57,0.00,0.00,0.00,27.65,31.04,32.49,0.00,0.02,1025.90,2010.94,3653.02,3044.02,3503.99,0.00,0.00,0.00,0000 0000 0000 A000 020008
2018-09-26 12:14:58,0.00,0.00,0.00,27.65,31.04,32.46,0.00,0.03,1025.90,2010.91,3653.02,3044.03,3503.99,0.00,0.00,0.00,0000 0000 0000 A000 020008
2018-09-26 12:19:59,0.00,0.00,0.00,27.65,31.02,32.40,0.00,0.03,1025.90,2010.97,3653.10,3044.06,3503.99,0.00,0.00,0.00,0000 0000 0000 A000 020008
2018-09-26 12:25:01,0.00,0.00,0.00,27.62,31.02,32.43,0.00,0.09,1025.90,2010.96,3653.09,3044.09,3503.99,0.00,0.00,0.00,0000 0000 0000 A000 020008
2018-09-26 12:30:02,0.00,0.00,0.00,27.62,31.02,32.40,0.00,0.24,1025.90,2010.98,3653.09,3044.11,3503.99,0.00,0.00,0.00,0000 0000 0000 A000 020008
2018-09-26 12:35:03,0.00,0.00,0.00,27.62,31.02,32.44,0.00,0.23,1025.90,2010.99,3653.18,3044.23,3504.00,0.00,0.00,0.00,0000 0000 0000 A000 020008
2018-09-26 12:40:04,0.00,0.00,0.00,27.64,31.02,32.43,0.00,0.23,1025.90,2010.97,3653.15,3044.17,3504.01,0.00,0.00,0.00,0000 0000 0000 A000 020008
2018-09-26 12:45:05,0.00,0.00,0.00,27.62,31.02,32.42,0.00,0.22,1025.90,2010.98,3653.28,3044.30,3504.02,0.00,0.00,0.00,0000 0000 0000 A000 020008
2018-09-26 12:50:06,0.00,0.00,0.00,27.62,31.01,32.44,0.00,0.23,1025.90,2010.99,3653.57,3044.56,3504.04,0.00,0.00,0.00,0000 0000 0000 A000 020008
2018-09-26 12:55:07,0.00,0.00,0.00,27.62,31.00,32.43,0.00,0.16,1025.90,2010.98,3653.59,3044.57,3504.01,0.00,0.00,0.00,0000 0000 0000 A000 020008
2018-09-26 13:00:08,0.00,0.00,0.00,27.61,31.00,32.39,0.00,0.09,1025.90,2010.99,3653.31,3044.32,3504.00,0.00,0.00,0.00,0000 0000 0000 A000 020008
2018-09-26 13:05:10,0.00,0.00,0.00,27.62,31.00,32.40,0.00,0.16,1025.90,2010.98,3653.43,3044.54,3504.02,0.00,0.00,0.00,0000 0000 0000 A000 020008
2018-09-26 13:10:11,0.00,0.00,0.00,27.62,31.00,32.41,0.00,0.23,1025.90,2010.99,3653.58,3044.58,3504.02,0.00,0.00,0.00,0000 0000 0000 A000 020008
2018-09-26 13:15:12,0.00,0.00,0.00,27.60,31.00,32.41,0.00,0.19,1025.90,2010.99,3653.64,3044.66,3504.05,0.00,0.00,0.00,0000 0000 0000 A000 020008
2018-09-26 13:20:13,0.00,0.00,0.00,27.59,31.00,32.40,0.00,0.05,1025.90,2010.99,3653.49,3044.60,3504.03,0.00,0.00,0.00,0000 0000 0000 A000 020008
2018-09-26 13:25:14,0.00,0.00,0.00,27.60,30.99,32.38,0.00,0.01,1025.90,2010.98,3653.53,3044.60,3504.02,0.00,0.00,0.00,0000 0000 0000 A000 020008
2018-09-26 13:30:15,0.00,0.00,0.00,27.57,30.98,32.34,0.00,0.03,1025.90,2010.99,3653.81,3044.86,3504.09,0.00,0.00,0.00,0000 0000 0000 A000 020008